KO4T-4 Weather Reports


Display with metric or nautical units.
time (UTC)temp
F
wind
direction
speed
MPH
gust
MPH
rain 1hr
in
rain 24hr
in
rain mn
in
humidity
%
barometer
mb
20260504214502 78 192 2.0 7.0 0.00 0.00 0.00 31 1012.9
20260504214002 79 200 2.0 6.0 0.00 0.00 0.00 31 1012.9
20260504213502 79 187 2.0 8.0 0.00 0.00 0.00 31 1012.9
20260504213002 79 186 3.0 8.0 0.00 0.00 0.00 30 1012.9
20260504212502 78 190 2.0 9.0 0.00 0.00 0.00 32 1012.9
20260504212003 79 192 3.0 9.0 0.00 0.00 0.00 31 1012.9
20260504211502 78 192 3.0 9.0 0.00 0.00 0.00 31 1012.9
20260504211003 79 177 2.0 9.0 0.00 0.00 0.00 31 1012.9
20260504210502 79 187 2.0 11.0 0.00 0.00 0.00 32 1012.9
20260504210002 79 207 2.0 11.0 0.00 0.00 0.00 32 1012.8
20260504205502 79 208 2.0 8.0 0.00 0.00 0.00 31 1012.9
20260504205002 79 200 2.0 7.0 0.00 0.00 0.00 31 1012.9
20260504204502 80 198 2.0 9.0 0.00 0.00 0.00 31 1013.0
20260504204002 80 197 2.0 9.0 0.00 0.00 0.00 30 1013.0
20260504203502 80 193 2.0 7.0 0.00 0.00 0.00 30 1013.1
20260504203002 80 179 1.0 6.0 0.00 0.00 0.00 30 1013.1
20260504202502 81 173 1.0 7.0 0.00 0.00 0.00 31 1013.1
20260504202002 81 197 1.0 8.0 0.00 0.00 0.00 29 1013.2
20260504201502 80 194 2.0 8.0 0.00 0.00 0.00 31 1013.3
20260504201002 80 175 2.0 5.0 0.00 0.00 0.00 30 1013.3
20260504200502 80 181 1.0 9.0 0.00 0.00 0.00 33 1013.3
20260504200002 80 185 1.0 9.0 0.00 0.00 0.00 34 1013.5
20260504195501 80 194 2.0 7.0 0.00 0.00 0.00 32 1013.4
20260504195002 79 209 3.0 7.0 0.00 0.00 0.00 34 1013.6
20260504194502 79 195 2.0 7.0 0.00 0.00 0.00 33 1013.6
20260504194002 79 168 2.0 7.0 0.00 0.00 0.00 31 1013.7
20260504193502 79 273 2.0 6.0 0.00 0.00 0.00 33 1013.7
20260504193002 78 273 2.0 6.0 0.00 0.00 0.00 32 1013.7
20260504192502 79 205 2.0 9.0 0.00 0.00 0.00 34 1013.8
20260504192002 79 194 2.0 9.0 0.00 0.00 0.00 34 1013.9
20260504191502 79 159 2.0 7.0 0.00 0.00 0.00 33 1013.9
20260504191002 79 184 2.0 6.0 0.00 0.00 0.00 35 1014.0
20260504190502 78 193 2.0 7.0 0.00 0.00 0.00 35 1014.0
20260504190002 78 185 2.0 7.0 0.00 0.00 0.00 35 1014.0
20260504185502 78 187 1.0 7.0 0.00 0.00 0.00 31 1014.1
20260504185002 78 186 2.0 5.0 0.00 0.00 0.00 35 1014.1
20260504184502 77 240 2.0 6.0 0.00 0.00 0.00 38 1014.1
20260504184002 76 255 2.0 6.0 0.00 0.00 0.00 35 1014.2
20260504183502 76 312 2.0 5.0 0.00 0.00 0.00 36 1014.3
20260504183002 75 322 2.0 6.0 0.00 0.00 0.00 37 1014.4
20260504182502 75 290 2.0 6.0 0.00 0.00 0.00 35 1014.5
20260504182001 75 297 2.0 6.0 0.00 0.00 0.00 36 1014.5
20260504181502 75 302 2.0 6.0 0.00 0.00 0.00 38 1014.5
20260504181002 75 306 2.0 7.0 0.00 0.00 0.00 38 1014.6
20260504180501 75 309 2.0 7.0 0.00 0.00 0.00 37 1014.6
20260504180002 75 291 3.0 6.0 0.00 0.00 0.00 38 1014.7
20260504175502 75 275 3.0 6.0 0.00 0.00 0.00 39 1014.7
20260504175002 74 331 3.0 6.0 0.00 0.00 0.00 39 1014.7
20260504174502 74 334 2.0 6.0 0.00 0.00 0.00 36 1014.7
20260504174002 75 327 2.0 5.0 0.00 0.00 0.00 34 1014.7
20260504173501 75 259 2.0 5.0 0.00 0.00 0.00 36 1014.7
20260504173002 76 235 1.0 5.0 0.00 0.00 0.00 34 1014.7
20260504172501 76 169 1.0 4.0 0.00 0.00 0.00 38 1014.8
20260504172002 75 256 1.0 4.0 0.00 0.00 0.00 35 1014.7
20260504171502 75 283 1.0 4.0 0.00 0.00 0.00 34 1014.8
20260504171002 74 264 2.0 5.0 0.00 0.00 0.00 39 1015.0
20260504170502 74 260 2.0 5.0 0.00 0.00 0.00 39 1015.1
20260504151002 67 282 1.0 4.0 0.00 0.00 0.00 43 1016.8
20260504150501 67 275 1.0 5.0 0.00 0.00 0.00 46 1017.0
20260504141001 62 287 1.0 4.0 0.00 0.00 0.00 53 1016.8
20260504140502 62 312 1.0 4.0 0.00 0.00 0.00 58 1016.8
20260504130501 57 0 0.0 0.0 0.00 0.00 0.00 71 1016.3
20260504110502 40 0 0.0 0.0 0.00 0.00 0.00 95 1015.6
20260504100503 39 0 0.0 0.0 0.00 0.00 0.00 94 1015.7
20260504082004 41 0 0.0 0.0 0.00 0.00 0.00 92 1015.6
20260504081504 41 0 0.0 0.0 0.00 0.00 0.00 92 1015.7
20260504081003 41 0 0.0 0.0 0.00 0.00 0.00 92 1015.6
20260504080504 41 0 0.0 0.0 0.00 0.00 0.00 92 1015.6
20260504050503 47 102 0.0 1.0 0.00 0.00 0.00 82 1016.0
20260504050004 47 0 0.0 0.0 0.00 0.00 0.00 81 1015.9
20260504045503 47 0 0.0 0.0 0.00 0.00 0.00 80 1016.0
20260504045004 48 0 0.0 0.0 0.00 0.00 0.00 80 1016.1
20260504044503 48 0 0.0 0.0 0.00 0.00 0.00 79 1016.0
20260504044003 48 0 0.0 0.0 0.00 0.00 0.00 78 1015.9
20260504043503 49 0 0.0 0.0 0.00 0.00 0.00 78 1015.9
20260504043004 49 0 0.0 0.0 0.00 0.00 0.00 78 1016.0
20260504042503 49 0 0.0 0.0 0.00 0.00 0.00 78 1015.9
20260504042003 49 0 0.0 0.0 0.00 0.00 0.00 78 1015.7
20260504041504 49 0 0.0 0.0 0.00 0.00 0.00 79 1015.7
20260504041004 49 102 0.0 1.0 0.00 0.00 0.00 78 1015.5
20260504040503 49 102 0.0 1.0 0.00 0.00 0.00 78 1015.6
20260504040005 49 0 0.0 0.0 0.00 0.00 0.00 78 1015.6
20260504035504 49 0 0.0 0.0 0.00 0.00 0.00 78 1015.6
20260504035003 49 101 0.0 1.0 0.00 0.00 0.00 78 1015.7
20260504034503 49 102 0.0 1.0 0.00 0.00 0.00 77 1015.7
20260504034004 50 103 0.0 1.0 0.00 0.00 0.00 77 1015.7
20260504033504 49 103 0.0 1.0 0.00 0.00 0.00 77 1015.7
20260504033003 50 103 0.0 1.0 0.00 0.00 0.00 76 1015.8
20260504032504 50 102 0.0 1.0 0.00 0.00 0.00 76 1015.8
20260504032003 50 96 0.0 2.0 0.00 0.00 0.00 76 1015.8
20260504031503 50 96 0.0 2.0 0.00 0.00 0.00 76 1015.9
20260504031004 50 95 0.0 1.0 0.00 0.00 0.00 75 1015.8
20260504030503 50 95 0.0 1.0 0.00 0.00 0.00 74 1015.8
20260504030003 50 95 0.0 1.0 0.00 0.00 0.00 74 1015.8
20260504025504 51 95 0.0 1.0 0.00 0.00 0.00 73 1015.9
20260504025003 51 0 0.0 0.0 0.00 0.00 0.00 72 1015.9
20260504024503 52 0 0.0 0.0 0.00 0.00 0.00 72 1015.9
20260504024004 52 0 0.0 0.0 0.00 0.00 0.00 71 1015.8
20260504023503 52 0 0.0 0.0 0.00 0.00 0.00 69 1015.8
20260504023003 53 0 0.0 0.0 0.00 0.00 0.00 68 1015.8
20260504022504 53 0 0.0 0.0 0.00 0.00 0.00 67 1015.7
20260504022004 54 0 0.0 0.0 0.00 0.00 0.00 67 1015.7
20260504021503 54 0 0.0 0.0 0.00 0.00 0.00 65 1015.6
20260504021004 54 0 0.0 0.0 0.00 0.00 0.00 65 1015.5
20260504020503 54 39 0.0 1.0 0.00 0.00 0.00 65 1015.5
20260504020003 54 82 0.0 2.0 0.00 0.00 0.00 65 1015.4
20260504015504 55 84 0.0 2.0 0.00 0.00 0.00 64 1015.3
20260504015004 56 75 0.0 2.0 0.00 0.00 0.00 61 1015.2
20260504014503 56 106 0.0 1.0 0.00 0.00 0.00 60 1015.1
20260504014004 57 116 0.0 1.0 0.00 0.00 0.00 59 1014.9
20260504013503 57 110 0.0 1.0 0.00 0.00 0.00 57 1014.9
20260504013004 57 0 0.0 0.0 0.00 0.00 0.00 57 1014.8
20260504012504 57 0 0.0 0.0 0.00 0.00 0.00 56 1014.8
20260504012003 58 129 0.0 1.0 0.00 0.00 0.00 55 1014.9
20260504011504 58 129 0.0 1.0 0.00 0.00 0.00 54 1014.8
20260504011004 58 0 0.0 0.0 0.00 0.00 0.00 54 1014.7
20260504010503 59 220 0.0 1.0 0.00 0.00 0.00 54 1014.8
20260504010004 59 222 0.0 1.0 0.00 0.00 0.00 52 1014.7
20260504005504 59 223 0.0 1.0 0.00 0.00 0.00 51 1014.7
20260504005004 59 122 0.0 1.0 0.00 0.00 0.00 52 1014.5
20260504004504 59 122 0.0 1.0 0.00 0.00 0.00 51 1014.5
20260504004004 59 0 0.0 0.0 0.00 0.00 0.00 52 1014.5
20260504003503 60 0 0.0 0.0 0.00 0.00 0.00 51 1014.5
20260504003004 60 0 0.0 0.0 0.00 0.00 0.00 50 1014.4
20260504002503 61 0 0.0 0.0 0.00 0.00 0.00 49 1014.5
20260504002003 62 0 0.0 0.0 0.00 0.00 0.00 48 1014.4
20260504001504 62 0 0.0 0.0 0.00 0.00 0.00 47 1014.4
20260504001003 63 0 0.0 0.0 0.00 0.00 0.00 46 1014.3
20260504000504 64 199 0.0 2.0 0.00 0.00 0.00 43 1014.4
20260504000004 65 183 0.0 3.0 0.00 0.00 0.00 42 1014.3
20260503235503 66 183 1.0 3.0 0.00 0.00 0.00 41 1014.2
20260503235004 67 202 1.0 4.0 0.00 0.00 0.00 39 1014.2
20260503234503 68 199 0.0 4.0 0.00 0.00 0.00 38 1014.2
20260503234004 68 187 0.0 2.0 0.00 0.00 0.00 37 1014.2
20260503233503 69 165 0.0 2.0 0.00 0.00 0.00 36 1014.2
20260503233004 69 150 0.0 3.0 0.00 0.00 0.00 35 1014.2
20260503232503 69 169 0.0 3.0 0.00 0.00 0.00 35 1014.2
20260503232004 69 194 1.0 3.0 0.00 0.00 0.00 34 1014.1
20260503231504 70 190 1.0 6.0 0.00 0.00 0.00 35 1014.1
20260503231003 70 197 0.0 6.0 0.00 0.00 0.00 33 1014.1
20260503230503 70 197 1.0 5.0 0.00 0.00 0.00 31 1014.2
20260503230004 70 194 1.0 7.0 0.00 0.00 0.00 31 1014.0
20260503225504 70 205 1.0 8.0 0.00 0.00 0.00 31 1014.1
20260503225004 70 213 1.0 8.0 0.00 0.00 0.00 30 1014.1
20260503224503 71 211 1.0 3.0 0.00 0.00 0.00 30 1014.1
20260503224004 70 222 1.0 5.0 0.00 0.00 0.00 32 1014.1
20260503223504 71 247 1.0 5.0 0.00 0.00 0.00 28 1014.1
20260503223003 71 249 0.0 3.0 0.00 0.00 0.00 27 1014.1
20260503222504 71 224 0.0 3.0 0.00 0.00 0.00 29 1014.1
20260503222004 71 356 1.0 2.0 0.00 0.00 0.00 28 1014.1
20260503221503 71 233 1.0 3.0 0.00 0.00 0.00 29 1014.1
20260503221003 70 233 1.0 4.0 0.00 0.00 0.00 26 1014.2
20260503220503 71 237 0.0 4.0 0.00 0.00 0.00 29 1014.2
20260503220003 72 203 1.0 2.0 0.00 0.00 0.00 31 1014.3
20260503215504 71 202 1.0 4.0 0.00 0.00 0.00 29 1014.3
20260503215004 70 231 2.0 6.0 0.00 0.00 0.00 27 1014.3